MDT,Max TemperatureF,Mean TemperatureF,Min TemperatureF,Max Dew PointF,MeanDew PointF,Min DewpointF,Max Humidity, Mean Humidity, Min Humidity, Max Sea Level PressureIn, Mean Sea Level PressureIn, Min Sea Level PressureIn, Max VisibilityMiles, Mean VisibilityMiles, Min VisibilityMiles, Max Wind SpeedMPH, Mean Wind SpeedMPH, Max Gust SpeedMPH,PrecipitationIn, CloudCover, Events, WindDirDegrees
2013-8-1,75,68,61,61,55,43,93,65,37,30.24,30.04,29.93,10,10,5,22,6,25,0.29,5,Rain-Thunderstorm,216
2013-8-2,84,72,59,61,56,48,87,58,29,30.28,30.01,29.91,10,10,4,25,6,29,0.10,2,Rain-Thunderstorm,124
2013-8-3,85,72,59,61,56,51,78,55,32,30.26,30.04,29.93,10,9,2,24,6,30,0.33,3,Rain-Thunderstorm,147
2013-8-4,82,68,54,60,54,48,86,62,37,30.28,30.09,30.01,10,10,8,21,5,28,0.02,2,Rain-Thunderstorm,188
2013-8-5,81,71,61,58,55,49,90,62,33,30.28,30.04,29.91,10,10,8,14,4,18,0.01,2,Rain-Thunderstorm,187
2013-8-6,84,71,58,54,52,50,75,56,36,30.04,29.96,29.90,10,10,7,26,7,32,T,1,,150
2013-8-7,78,69,60,54,50,46,78,56,33,30.01,29.95,29.90,10,10,10,28,6,32,T,1,,144
2013-8-8,81,70,58,52,47,40,72,48,23,30.15,29.99,29.90,10,10,10,23,7,28,T,2,Rain-Thunderstorm,131
2013-8-9,80,66,52,50,46,37,83,55,27,30.24,30.07,29.98,10,9,2,23,6,28,T,1,Thunderstorm,147
2013-8-10,77,64,50,54,48,43,96,64,31,30.44,30.19,30.06,10,9,4,29,8,35,0.19,2,Rain-Thunderstorm,174
2013-8-11,81,64,47,51,45,35,93,57,20,30.25,30.13,30.00,10,10,10,13,5,16,0.00,0,,144
2013-8-12,83,69,54,54,47,40,72,48,23,30.22,30.06,29.97,10,10,9,23,6,29,0.05,2,Thunderstorm,217
2013-8-13,86,68,50,51,45,38,83,51,19,30.32,30.06,29.98,10,10,4,15,5,22,0.00,0,,118
2013-8-14,88,70,52,44,39,26,66,39,11,30.09,30.02,29.95,10,10,10,18,7,25,0.00,0,,154
2013-8-15,90,71,52,45,37,29,59,35,11,30.07,30.00,29.95,10,10,10,15,7,17,0.00,0,,134
2013-8-16,93,73,53,43,35,24,54,32,9,30.09,30.00,29.94,10,10,10,15,6,18,0.00,0,,150
2013-8-17,92,74,55,49,41,33,55,35,14,30.05,29.98,29.92,10,10,10,22,6,25,0.00,0,,175
2013-8-18,90,75,59,48,46,42,60,41,21,30.25,30.01,29.95,10,10,10,23,8,28,0.00,0,,148
2013-8-19,92,74,56,51,46,39,67,42,17,30.19,29.99,29.86,10,10,10,28,9,33,0.00,0,Thunderstorm,171
2013-8-20,89,74,59,54,49,44,67,44,21,30.21,29.98,29.86,10,10,4,33,7,40,T,2,Rain-Thunderstorm,166
2013-8-21,85,70,55,53,48,44,77,52,27,30.09,30.00,29.94,10,10,10,23,6,29,T,1,,155
2013-8-22,87,75,62,56,51,46,73,50,27,30.29,30.06,29.90,10,9,2,22,7,24,0.02,1,Rain-Thunderstorm,141
2013-8-23,86,72,57,59,51,45,77,51,25,30.19,29.99,29.81,10,10,7,22,5,26,0.03,2,Rain-Thunderstorm,109
2013-8-24,82,72,62,57,51,45,84,56,28,30.27,29.99,29.92,10,10,10,20,5,24,0.01,5,Rain-Thunderstorm,162
2013-8-25,72,66,60,61,58,56,100,81,61,30.17,30.11,30.02,10,10,5,12,3,15,0.13,6,Rain,321
2013-8-26,78,69,60,63,60,55,100,75,50,30.36,30.19,30.06,10,8,0,15,4,29,0.11,6,Fog-Rain-Thunderstorm,171
2013-8-27,85,71,56,59,56,53,93,64,34,30.13,30.04,29.95,10,10,10,16,6,20,0.00,0,,175
2013-8-28,89,74,59,57,53,47,87,56,24,30.22,30.01,29.90,10,10,2,35,8,44,0.00,1,,151
2013-8-29,91,75,58,53,50,39,77,48,18,30.10,30.03,29.97,10,10,10,26,8,30,T,1,,146
2013-8-30,89,76,63,57,53,49,73,51,28,30.31,30.03,29.93,10,10,5,23,7,29,T,2,Rain,166
2013-8-31,90,75,59,58,52,47,75,49,23,30.25,29.97,29.84,10,10,7,18,8,22,T,1,Rain,148